Time,TemperatureF,DewpointF,PressureIn,WindDirection,WindDirectionDegrees,WindSpeedMPH,WindSpeedGustMPH,Humidity,HourlyPrecipIn,Conditions,Clouds,dailyrainin,SoftwareType,DateUTC
2011-12-18 00:03:00,27.7,19.5,30.12,SE,135,0.0,2.2,71,0.00,,,0.00,open2300-1.11,2011-12-18 07:03:00,
2011-12-18 00:18:00,27.5,19.4,30.12,SSE,157,0.0,0.9,71,0.00,,,0.00,open2300-1.11,2011-12-18 07:18:00,
2011-12-18 00:33:00,27.1,19.0,30.12,NW,315,0.0,4.2,71,0.00,,,0.00,open2300-1.11,2011-12-18 07:33:00,
2011-12-18 00:48:00,27.0,19.1,30.12,WNW,292,0.0,3.6,72,0.00,,,0.00,open2300-1.11,2011-12-18 07:48:00,
2011-12-18 01:03:00,26.8,18.9,30.12,WNW,292,0.0,0.0,72,0.00,,,0.00,open2300-1.11,2011-12-18 08:03:00,
2011-12-18 01:18:00,27.3,19.8,30.10,East,90,0.0,3.1,73,0.00,,,0.00,open2300-1.11,2011-12-18 08:18:00,
2011-12-18 01:33:00,27.9,20.3,30.10,East,90,0.0,5.8,73,0.00,,,0.00,open2300-1.11,2011-12-18 08:33:00,
2011-12-18 01:48:00,27.1,19.3,30.11,SE,135,0.0,0.0,72,0.00,,,0.00,open2300-1.11,2011-12-18 08:48:00,
2011-12-18 02:03:00,26.2,19.0,30.10,SE,135,0.0,0.0,74,0.00,,,0.00,open2300-1.11,2011-12-18 09:03:00,
2011-12-18 02:18:00,26.4,19.2,30.10,ESE,112,0.0,0.9,74,0.00,,,0.00,open2300-1.11,2011-12-18 09:18:00,
2011-12-18 02:33:00,27.0,19.4,30.09,SSE,157,0.0,2.5,73,0.00,,,0.00,open2300-1.11,2011-12-18 09:33:00,
2011-12-18 02:48:00,26.4,18.9,30.09,SSE,157,0.0,0.0,73,0.00,,,0.00,open2300-1.11,2011-12-18 09:48:00,
2011-12-18 03:03:00,25.9,18.0,30.08,SSE,157,0.0,0.0,72,0.00,,,0.00,open2300-1.11,2011-12-18 10:03:00,
2011-12-18 03:18:00,25.3,17.8,30.09,SSE,157,0.0,0.0,73,0.00,,,0.00,open2300-1.11,2011-12-18 10:18:00,
2011-12-18 03:33:00,24.6,17.5,30.08,SSE,157,0.0,0.0,74,0.00,,,0.00,open2300-1.11,2011-12-18 10:33:00,
2011-12-18 03:48:00,23.9,17.1,30.07,SSE,157,0.0,0.0,75,0.00,,,0.00,open2300-1.11,2011-12-18 10:48:00,
2011-12-18 04:03:00,23.5,16.8,30.08,SSE,157,0.0,0.0,75,0.00,,,0.00,open2300-1.11,2011-12-18 11:03:00,
2011-12-18 04:18:00,23.5,17.1,30.07,SSE,157,0.0,0.0,76,0.00,,,0.00,open2300-1.11,2011-12-18 11:18:00,
2011-12-18 04:33:00,23.4,16.9,30.06,SSE,157,0.0,1.3,76,0.00,,,0.00,open2300-1.11,2011-12-18 11:33:00,
2011-12-18 04:48:00,23.4,17.2,30.07,SSE,157,0.0,0.0,77,0.00,,,0.00,open2300-1.11,2011-12-18 11:48:00,
2011-12-18 05:03:00,23.2,17.0,30.07,SSE,157,0.0,0.0,77,0.00,,,0.00,open2300-1.11,2011-12-18 12:03:00,
2011-12-18 05:18:00,22.8,16.7,30.06,SSE,157,0.0,0.0,77,0.00,,,0.00,open2300-1.11,2011-12-18 12:18:00,
2011-12-18 05:34:00,22.8,17.0,30.06,SSE,157,0.0,0.0,78,0.00,,,0.00,open2300-1.11,2011-12-18 12:34:00,
2011-12-18 05:48:00,22.5,16.6,30.05,SSE,157,0.0,0.0,78,0.00,,,0.00,open2300-1.11,2011-12-18 12:48:00,
2011-12-18 06:03:00,22.3,16.5,30.04,SSE,157,0.0,0.0,78,0.00,,,0.00,open2300-1.11,2011-12-18 13:03:00,
2011-12-18 06:18:00,22.5,16.9,30.04,SE,135,0.0,0.0,79,0.00,,,0.00,open2300-1.11,2011-12-18 13:18:00,
2011-12-18 06:33:00,22.3,16.5,30.05,SE,135,0.0,0.0,78,0.00,,,0.00,open2300-1.11,2011-12-18 13:33:00,
2011-12-18 06:48:00,21.9,16.1,30.06,SE,135,0.0,0.0,78,0.00,,,0.00,open2300-1.11,2011-12-18 13:48:00,
2011-12-18 07:03:00,21.7,16.2,30.05,SE,135,0.0,0.0,79,0.00,,,0.00,open2300-1.11,2011-12-18 14:03:00,
2011-12-18 07:18:00,21.4,15.9,30.05,SE,135,0.0,0.0,79,0.00,,,0.00,open2300-1.11,2011-12-18 14:18:00,
2011-12-18 07:33:00,21.0,15.5,30.05,SE,135,0.0,0.0,79,0.00,,,0.00,open2300-1.11,2011-12-18 14:33:00,
2011-12-18 07:48:00,21.4,16.2,30.05,SE,135,0.0,0.0,80,0.00,,,0.00,open2300-1.11,2011-12-18 14:48:00,
2011-12-18 08:03:00,21.9,16.7,30.04,SE,135,0.0,0.0,80,0.00,,,0.00,open2300-1.11,2011-12-18 15:03:00,
2011-12-18 08:18:00,23.2,18.2,30.04,SSE,157,0.0,0.0,81,0.00,,,0.00,open2300-1.11,2011-12-18 15:18:00,
2011-12-18 08:33:00,25.5,20.2,30.04,ENE,67,0.0,0.0,80,0.00,,,0.00,open2300-1.11,2011-12-18 15:33:00,
2011-12-18 08:48:00,28.2,21.9,30.03,East,90,0.0,3.6,77,0.00,,,0.00,open2300-1.11,2011-12-18 15:48:00,
2011-12-18 09:03:00,30.9,23.6,30.03,SSE,157,0.0,0.0,74,0.00,,,0.00,open2300-1.11,2011-12-18 16:03:00,
2011-12-18 09:18:00,34.2,25.3,30.02,SSE,157,1.8,1.8,70,0.00,,,0.00,open2300-1.11,2011-12-18 16:18:00,
2011-12-18 09:33:00,37.4,26.3,30.02,SSE,157,0.0,1.8,64,0.00,,,0.00,open2300-1.11,2011-12-18 16:33:00,
2011-12-18 09:48:00,39.9,26.3,30.02,SE,135,0.0,0.0,58,0.00,,,0.00,open2300-1.11,2011-12-18 16:48:00,
2011-12-18 10:03:00,42.4,26.9,30.01,SE,135,0.0,0.0,54,0.00,,,0.00,open2300-1.11,2011-12-18 17:03:00,
2011-12-18 10:18:00,44.8,28.2,30.00,SE,135,0.0,0.0,52,0.00,,,0.00,open2300-1.11,2011-12-18 17:18:00,
2011-12-18 10:33:00,48.6,29.6,30.00,SSE,157,0.0,0.0,48,0.00,,,0.00,open2300-1.11,2011-12-18 17:33:00,
2011-12-18 10:48:00,50.4,29.7,30.00,NW,315,0.0,3.8,45,0.00,,,0.00,open2300-1.11,2011-12-18 17:48:00,
2011-12-18 11:03:00,51.4,29.6,29.99,WNW,292,0.0,4.9,43,0.00,,,0.00,open2300-1.11,2011-12-18 18:03:00,
2011-12-18 11:18:00,52.3,29.8,29.98,NW,315,0.0,3.4,42,0.00,,,0.00,open2300-1.11,2011-12-18 18:18:00,
2011-12-18 11:33:00,52.9,29.2,29.97,WNW,292,0.0,5.8,40,0.00,,,0.00,open2300-1.11,2011-12-18 18:33:00,
2011-12-18 11:48:00,54.3,29.1,29.96,WNW,292,3.4,6.0,38,0.00,,,0.00,open2300-1.11,2011-12-18 18:48:00,
2011-12-18 12:03:00,55.2,28.5,29.95,West,270,0.0,6.9,36,0.00,,,0.00,open2300-1.11,2011-12-18 19:03:00,
2011-12-18 12:18:00,55.2,29.2,29.94,WNW,292,0.0,7.6,37,0.00,,,0.00,open2300-1.11,2011-12-18 19:18:00,
2011-12-18 12:33:00,55.9,29.1,29.94,WNW,292,1.3,8.1,36,0.00,,,0.00,open2300-1.11,2011-12-18 19:33:00,
2011-12-18 12:48:00,55.4,28.0,29.93,West,270,0.0,8.3,35,0.00,,,0.00,open2300-1.11,2011-12-18 19:48:00,
2011-12-18 13:03:00,55.9,28.4,29.92,WNW,292,0.0,5.8,35,0.00,,,0.00,open2300-1.11,2011-12-18 20:03:00,
2011-12-18 13:18:00,57.4,29.0,29.92,WSW,247,0.0,3.1,34,0.00,,,0.00,open2300-1.11,2011-12-18 20:18:00,
2011-12-18 13:33:00,57.7,29.4,29.91,West,270,3.1,7.4,34,0.00,,,0.00,open2300-1.11,2011-12-18 20:33:00,
2011-12-18 13:48:00,58.8,29.6,29.91,WSW,247,2.5,5.6,33,0.00,,,0.00,open2300-1.11,2011-12-18 20:48:00,
2011-12-18 14:03:00,58.1,29.7,29.90,WNW,292,0.0,4.9,34,0.00,,,0.00,open2300-1.11,2011-12-18 21:03:00,
2011-12-18 14:18:00,59.4,30.8,29.90,West,270,4.5,4.5,34,0.00,,,0.00,open2300-1.11,2011-12-18 21:18:00,
2011-12-18 14:33:00,59.5,28.8,29.90,SW,225,3.8,5.1,31,0.00,,,0.00,open2300-1.11,2011-12-18 21:33:00,
2011-12-18 14:48:00,57.7,29.4,29.89,West,270,4.7,6.0,34,0.00,,,0.00,open2300-1.11,2011-12-18 21:48:00,
2011-12-18 15:03:00,57.9,28.1,29.89,WSW,247,3.4,9.8,32,0.00,,,0.00,open2300-1.11,2011-12-18 22:03:00,
2011-12-18 15:18:00,58.1,29.0,29.89,WNW,292,4.9,4.9,33,0.00,,,0.00,open2300-1.11,2011-12-18 22:18:00,
2011-12-18 15:33:00,58.6,28.8,29.89,WNW,292,0.0,5.6,32,0.00,,,0.00,open2300-1.11,2011-12-18 22:33:00,
2011-12-18 15:48:00,58.8,28.2,29.89,WNW,292,0.0,0.9,31,0.00,,,0.00,open2300-1.11,2011-12-18 22:48:00,
2011-12-18 16:03:00,57.6,27.8,29.89,WSW,247,0.0,2.5,32,0.00,,,0.00,open2300-1.11,2011-12-18 23:03:00,
2011-12-18 16:18:00,52.5,25.5,29.88,WNW,292,1.8,4.0,35,0.00,,,0.00,open2300-1.11,2011-12-18 23:18:00,
2011-12-18 16:33:00,49.5,24.8,29.88,WNW,292,0.0,1.8,38,0.00,,,0.00,open2300-1.11,2011-12-18 23:33:00,
2011-12-18 16:48:00,47.3,24.2,29.88,NW,315,0.0,0.7,40,0.00,,,0.00,open2300-1.11,2011-12-18 23:48:00,
2011-12-18 17:03:00,45.1,23.9,29.88,NW,315,0.0,0.0,43,0.00,,,0.00,open2300-1.11,2011-12-19 00:03:00,
2011-12-18 17:18:00,44.2,23.6,29.88,NW,315,0.0,0.0,44,0.00,,,0.00,open2300-1.11,2011-12-19 00:18:00,
2011-12-18 17:33:00,42.4,22.5,29.88,NW,315,0.0,0.0,45,0.00,,,0.00,open2300-1.11,2011-12-19 00:33:00,
2011-12-18 17:48:00,39.9,21.2,29.87,NW,315,0.0,0.0,47,0.00,,,0.00,open2300-1.11,2011-12-19 00:48:00,
2011-12-18 18:03:00,38.3,21.3,29.87,NW,315,0.0,0.0,50,0.00,,,0.00,open2300-1.11,2011-12-19 01:03:00,
2011-12-18 18:18:00,36.5,21.0,29.88,NW,315,0.0,0.0,53,0.00,,,0.00,open2300-1.11,2011-12-19 01:18:00,
2011-12-18 18:33:00,35.4,20.8,29.88,NW,315,0.0,0.0,55,0.00,,,0.00,open2300-1.11,2011-12-19 01:33:00,
2011-12-18 18:48:00,34.9,20.7,29.87,NW,315,0.0,0.0,56,0.00,,,0.00,open2300-1.11,2011-12-19 01:48:00,
2011-12-18 19:03:00,34.5,21.2,29.87,NW,315,0.0,0.0,58,0.00,,,0.00,open2300-1.11,2011-12-19 02:03:00,
2011-12-18 19:18:00,34.0,21.1,29.86,NNE,22,0.0,0.0,59,0.00,,,0.00,open2300-1.11,2011-12-19 02:18:00,
2011-12-18 19:33:00,34.0,22.6,29.85,SSE,157,0.0,8.1,63,0.00,,,0.00,open2300-1.11,2011-12-19 02:33:00,
2011-12-18 19:48:00,34.2,22.8,29.85,East,90,0.0,2.0,63,0.00,,,0.00,open2300-1.11,2011-12-19 02:48:00,
2011-12-18 20:03:00,35.4,24.1,29.84,East,90,6.9,6.9,63,0.00,,,0.00,open2300-1.11,2011-12-19 03:03:00,
2011-12-18 20:18:00,36.1,24.4,29.83,ENE,67,7.6,7.6,62,0.00,,,0.00,open2300-1.11,2011-12-19 03:18:00,
2011-12-18 20:33:00,36.3,24.2,29.83,ENE,67,0.0,8.3,61,0.00,,,0.00,open2300-1.11,2011-12-19 03:33:00,
2011-12-18 20:48:00,36.3,24.2,29.83,ENE,67,6.3,8.5,61,0.00,,,0.00,open2300-1.11,2011-12-19 03:48:00,
2011-12-18 21:03:00,36.1,24.0,29.82,NE,45,4.9,6.5,61,0.00,,,0.00,open2300-1.11,2011-12-19 04:03:00,
2011-12-18 21:18:00,36.1,24.4,29.81,East,90,4.5,6.9,62,0.00,,,0.00,open2300-1.11,2011-12-19 04:18:00,
2011-12-18 21:33:00,36.3,24.9,29.81,ENE,67,2.7,9.6,63,0.00,,,0.00,open2300-1.11,2011-12-19 04:33:00,
2011-12-18 21:48:00,35.4,24.1,29.81,WNW,292,0.0,4.5,63,0.00,,,0.00,open2300-1.11,2011-12-19 04:48:00,
2011-12-18 22:03:00,34.7,23.7,29.81,WNW,292,0.0,0.0,64,0.00,,,0.00,open2300-1.11,2011-12-19 05:03:00,
2011-12-18 22:18:00,34.2,23.9,29.81,NNW,337,0.0,3.1,66,0.00,,,0.00,open2300-1.11,2011-12-19 05:18:00,
2011-12-18 22:33:00,33.8,23.5,29.81,North,0,0.0,3.4,66,0.00,,,0.00,open2300-1.11,2011-12-19 05:33:00,
2011-12-18 22:48:00,33.6,23.7,29.82,North,0,0.0,0.0,67,0.00,,,0.00,open2300-1.11,2011-12-19 05:48:00,
2011-12-18 23:03:00,33.6,24.1,29.82,NNW,337,0.0,2.0,68,0.00,,,0.00,open2300-1.11,2011-12-19 06:03:00,
2011-12-18 23:18:00,33.6,23.7,29.81,NNW,337,0.0,0.0,67,0.00,,,0.00,open2300-1.11,2011-12-19 06:18:00,
2011-12-18 23:33:00,33.1,23.6,29.80,NNW,337,0.0,0.0,68,0.00,,,0.00,open2300-1.11,2011-12-19 06:33:00,
2011-12-18 23:48:00,32.7,23.3,29.80,NNW,337,0.0,0.0,68,0.00,,,0.00,open2300-1.11,2011-12-19 06:48:00,